www.pogodaiklimat.ru
ПОГОДА в Клейтон Лейк
Время
и дата
09:16 29.01
10:16 29.01
11:16 29.01
12:16 29.01
13:16 29.01
14:16 29.01
15:16 29.01
16:16 29.01
17:16 29.01
18:16 29.01
19:16 29.01
20:16 29.01
21:16 29.01
22:16 29.01
23:16 29.01
00:16 30.01
01:16 30.01
02:16 30.01
03:17 30.01
04:16 30.01
05:16 30.01
06:16 30.01
07:16 30.01
08:16 30.01
09:16 30.01
10:16 30.01
11:16 30.01
12:16 30.01
13:16 30.01
14:16 30.01
15:16 30.01
16:16 30.01
17:16 30.01
18:16 30.01
19:16 30.01
20:16 30.01
21:16 30.01
22:16 30.01
23:16 30.01
00:16 31.01
01:16 31.01
02:16 31.01
03:16 31.01
04:16 31.01
05:16 31.01
06:16 31.01
07:16 31.01
08:16 31.01
Ветер
(напр.,м/с)
Видим. Явления Облачность Т
(С)
Тd
(С)
f
(%)
Тe
(С)
Тes
(С)
Комфортность P
(гПа)
Po
(гПа)
Тmin
(С)
Tmax
(С)
R
(мм)
R24
(мм)
S
(см)
нст 1 н/о н/о -10.1 -14.0 73 -12 -12 1029.1 988.0
нст 2 н/о н/о -8.1 -13.1 67 -12 -12 1028.4 987.3 1.5
нст 2 н/о н/о -8.0 -11.5 76 -12 -12 1026.7 985.4
нст 2 н/о н/о -8.1 -9.7 88 -13 -13 1025.3 984.4
В 4 н/о н/о -8.0 -9.5 89 -15 -15 1023.7 982.8 -11.2 -7.1 5.3
В 3 н/о н/о -8.8 -10.3 89 -15 -15 1022.0 981.1
нст 3 н/о н/о -9.0 -10.3 90 -15 -15 1020.8 979.8
нст 2 н/о н/о -9.4 -10.6 91 -14 -14 1019.5 978.5 2.8
нст 2 н/о н/о -9.7 -10.9 91 -14 -14 1018.6 977.9
нст 2 н/о н/о -10.3 -11.5 91 -15 -15 1017.6 976.9
нст 2 н/о н/о -10.5 -11.8 90 -15 -15 1017.0 976.2 -10.5 -7.9 4.8
штиль 0 н/о н/о -10.5 -11.8 90 -11 -11 1016.7 975.9
нст 2 н/о н/о -10.8 -12.3 89 -15 -15 1017.4 976.6
штиль 0 н/о н/о -12.1 -13.7 88 -12 -12 1018.0 977.2 1.8
штиль 0 н/о н/о -13.1 -14.8 87 -13 -13 1018.7 977.9
штиль 0 н/о н/о -14.5 -16.1 88 -15 -15 1019.9 978.9
штиль 0 н/о н/о -16.2 -17.9 87 -16 -16 1020.8 979.8 -16.4 -10.4 9.7
штиль 0 н/о н/о -17.1 -19.0 85 -17 -17 1022.0 980.8
штиль 0 н/о н/о -17.9 -19.9 84 -18 -18 1022.8 981.5
штиль 0 н/о н/о -18.3 -20.1 86 -18 -18 1024.3 982.8 3.0
штиль 0 н/о н/о -21.0 -23.2 82 -21 -21 1024.4 982.8
штиль 0 н/о н/о -19.6 -21.7 83 -20 -20 1024.6 982.8
штиль 0 н/о н/о -21.9 -24.3 81 -22 -22 1024.6 982.4 -21.9 -16.1 11.4 31.2
штиль 0 н/о н/о -19.9 -21.9 84 -20 -20 1026.1 983.7
штиль 0 н/о н/о -15.8 -17.4 87 -16 -16 1026.5 984.1
нст 2 н/о н/о -10.7 -12.7 85 -15 -15 1026.0 983.7 13.2
Ю 4 н/о н/о -9.2 -11.5 83 -16 -16 1025.3 983.1
нст 1 н/о н/о -8.7 -11.2 82 -11 -11 1024.0 981.8
нст 2 н/о н/о -8.2 -11.1 80 -13 -13 1022.8 980.8 -22.0 -8.2 24.1
нст 1 н/о н/о -8.1 -10.8 81 -10 -10 1022.4 980.5
штиль 0 н/о н/о -8.2 -10.2 85 -9 -9 1022.6 980.8
штиль 0 н/о н/о -8.6 -10.2 88 -9 -9 1021.8 980.2 2.5
штиль 0 н/о н/о -9.1 -10.6 89 -10 -10 1022.0 980.5
штиль 0 н/о н/о -9.3 -10.6 90 -10 -10 1022.4 981.1
штиль 0 н/о н/о -9.7 -10.7 92 -10 -10 1021.9 980.8 -9.7 -7.7 4.6
штиль 0 н/о н/о -10.0 -11.2 91 -10 -10 1021.4 980.5
штиль 0 н/о н/о -10.3 -11.4 92 -11 -11 1021.2 980.2
штиль 0 н/о н/о -10.7 -11.9 91 -11 -11 1021.1 980.2 0.8
штиль 0 н/о н/о -10.7 -11.9 91 -11 -11 1020.6 979.8
штиль 0 н/о н/о -10.9 -12.2 90 -11 -11 1020.4 979.5
штиль 0 н/о н/о -12.1 -13.3 91 -12 -12 1019.8 978.9 -12.2 -9.7 2.8
штиль 0 н/о н/о -12.3 -13.4 91 -12 -12 1019.6 978.9
штиль 0 н/о н/о -12.0 -13.3 90 -12 -12 1019.1 978.2
штиль 0 н/о н/о -12.2 -13.7 89 -12 -12 1018.9 977.9 0.3
штиль 0 н/о н/о -11.7 -12.9 91 -12 -12 1018.6 977.6
штиль 0 н/о н/о -10.4 -11.7 90 -11 -11 1019.0 977.9
штиль 0 н/о н/о -10.5 -12.2 87 -11 -11 1019.4 978.2 -12.6 -10.3 1.8 33.3
штиль 0 н/о н/о -10.6 -13.0 82 -11 -11 1020.1 979.2
Местоположение метеостанции Clayton Lake: широта 46.6200 долгота -69.5300 высота над уровнем моря 314 м.
В архиве по умолчанию представлена погода в Клейтон Лейк за последние 1-2 суток. Обновление информации о фактической погоде в базе происходит ежечасно! Архивные данные за месяц целиком и за предыдущие месяцы Вы можете получить, выбрав интересующий диапазон дат из раскрывающегося списка и нажав кнопку "Ввод!".
Внимание! Архив погоды МЕТАР в базе сайта по станциям, не включенным в климатический монитор, хранится не более 60 дней. Нет смысла пытаться выбрать более раннюю дату.
*Определитесь, кто Вы:
Внимание! Время в таблицах - местное (без учета летнего времени). Для получения всемирного времени необходимо вычесть поправку, которая равна -5 ч.
Смотрите также архив погоды в соседних городах и на ближайших метеорологических станциях:
Партнеры нашего сайта:      
Пояснения к столбцам:
  • Ветер - указаны скорость ветра в м/с - средняя за 10 мин, порывы в срок и между сроками (в фигурных скобках) и направление, откуда дует ветер: С - северный,
  • СВ - северо-восточный, В - восточный, ЮВ - юго-восточный, Ю - южный, ЮЗ - юго-западный, З - западный, СЗ - северо-западный.
  • Видимость - горизонтальная дальность видимости в метрах или километрах. При видимости от 1 до 10 км при отсутствии осадков обычно наблюдается дымка, при ухудшении видимости до 1 км и менее - туман. В сухую погоду видимость может ухудшаться дымом, пылью или мглою.
  • Явления - указаны атмосферные явления, наблюдавшиеся в срок или в последний час перед сроком; фигурными скобками обозначены явления, наблюдавшиеся между сроками (за 1-3 часа до срока); квадратными скобками обозначены град или гололедные отложения с указанием их диаметра в мм.
  • Облачность - указаны через наклонную черту общая и нижняя облачность в баллах и высота нижней границы облаков в метрах; квадратными скобками обозначены формы облаков: Ci - перистые, Cs - перисто-слоистые, Cc - перисто-кучевые, Ac - высококучевые, As - высокослоистые, Sc - слоисто-кучевые, Ns - слоисто-дождевые, Cu - кучевые, Cb - кучево-дождевые. Подробнее классификацию облаков см. в Атласе облаков (PDF).
  • T - Температура воздуха - температура, измеренная на высоте 2 м над землей.
  • Td - Температура точки росы - температура, при понижении до которой содержащийся в воздухе водяной пар достигнет насыщения.
  • f - Относительная влажность воздуха - влажноcть воздуха, измеренная на высоте 2 м над землей.
  • Te - Эффективная температура - температура, которую ощущает одетый по сезону человек в тени. Характеристика душности погоды. При расчете учитывается влияние влажности воздуха и скорости ветра на теплоощущения человека.
  • Tes - Эффективная температура на солнце - температура, которую ощущает человек, с поправкой на солнечный нагрев. Характеристика знойности погоды. Зависит от высоты солнца над горизонтом, облачности и скорости ветра. Ночью, в пасмурную погоду, а также при ветре 12 м/с и более поправка равна нулю.
  • P - Атмосферное давление - приведенное к уровню моря атмосферное давление.
  • Po - Атмосферное давление - измеренное на уровне метеостанции атмосферное давление.
  • Tmin - Минимальная температура - минимум температуры воздуха на высоте 2 м над землей.
  • Tmax - Максимальная температура - максимум температуры воздуха на высоте 2 м над землей.
  • R - Количество осадков - Количество выпавших осадков за период времени, мм. При наведении курсора мыши на число - период времени, за который выпало указанное количество осадков.
  • R24 - Количество осадков - Количество выпавших осадков за 24 часа, мм.
  • S - Снежный покров - Высота снежного покрова, см. При наведении курсора мыши на число - состояние снежного покрова и степень покрытия местности в баллах.